Погода Тас-Тумус

Поиск расширенной информации на нашем сайте:

Полезная информация:

Новости сайта



02.01.2020
Опубликован Долгосрочный прогноз погоды по городам России и ближнего зарубежья на январь 2020 года.
Карты: Прогноз на январь и февраль 2020 года, Сравнение прогнозируемой аномалии приземной температуры воздуха на январь 2020 года по разным моделям.




Погода Тас-Тумус - сегодня

Время (UTC), дата Ветер
(°,м/с) 
Видим.   Явления Облачность Т
(°С)
Тd
(°С)
f(%) Тe
(°С)
Pmin
(гПа)
dP
(гПа)
Po
(мм)
O2
(г/м3)
Тmin Tmax R s Состояние
почвы
21 29.11.20 тихо ()   20000 м    8/0 средняя, верхняя 
[Ac trans|Ci fib]
-32 -33.7 85 -32  1027.3  -0.1  761  349           
00 30.11.20 тихо ()   50000 м    8/0 средняя, верхняя 
[Ac trans|Ci fib]
-31.1 -32.8 85 -31  1026.9  -0.3  761  348  -33.3      29  равномерный
сухой снег
100% 
03 30.11.20 120 (ЮВ) 20000 м    10/0 средняя 
[As trans]
-28.3 -30 85 -29  1026.2  -0.6  761  344           
06 30.11.20 120 (ЮВ) 10 км  слаб. снег  10/0 средняя 
[As op]
-27.3 -28.5 89 -28  1025.3  -0.8  760  342           
09 30.11.20 120 (ЮВ) 10 км  слаб. снег  10/0 средняя 
[As op]
-26.8 -28.1 89 -27  1025.1  -0.2  760  341           
12 30.11.20 120 (ЮВ) 20000 м  {снег}  10/0 средняя 
[As trans]
-24.9 -25.6 94 -25  1024.5  -0.5  759  338    -24.9  0.6     
15 30.11.20 120 (ЮВ) 20000 м    10/0 средняя 
[As trans]
-25.5 -26.1 95 -29  1023.9  -0.5  759  339           
18 30.11.20 120 (ЮВ) 20000 м    10/0 средняя 
[As trans]
-26.4 -27 95 -30  1023.3  -0.7  758  340           
21 30.11.20 120 (ЮВ) 20000 м    10/0 средняя 
[As trans]
-26.8 -27.5 94 -30  1022.8  -0.5  758  341           
00 01.12.20 120 (ЮВ) 20000 м    10/0 средняя 
[As trans]
-26.7 -27.3 95 -30  1022.2  -0.6  758  340  -27.1      30  равномерный
сухой снег
100% 
03 01.12.20 120 (ЮВ) 20000 м    10/0 средняя 
[As trans]
-26.5 -27.7 90 -32  1021.1  -1.1  757  340           
06 01.12.20 120 (ЮВ) 20000 м    10/0 средняя 
[As trans]
-25.3 -26.6 89 -30  1019  -1.9  755  337           
09 01.12.20 120 (ЮВ) 20000 м    10/0 средняя 
[As trans]
-25.8 -27 90 -31  1017.6  -1.4  754  337           
12 01.12.20 120 (ЮВ) 10 км  слаб. снег  10/0 средняя 
[As op]
-25.4 -26 95 -32  1015.6  -2  753  336    -25  0.5     
15 01.12.20 120 (ЮВ) 10 км  слаб. снег  10/0 средняя 
[As op]
-25 -25.6 95 -31  1013.5  -2.1  751  335           
18 01.12.20 100 (В) 10 км  слаб. снег  10/0 средняя 
[As op]
-24.9 -25.6 94 -31  1013.2  -0.3  751  335           
21 01.12.20 110 (В) 10 км  слаб. снег  10/0 средняя 
[As op]
-25 -25 100 -31  1012.1  -1.1  750  335           
00 02.12.20 110 (В) 50000 м  {снег}  4/0 средняя 
[Ac trans]
-26.4 -27 95 -32  1012.5  0.3  750  337  -26.4    30  равномерный
сухой снег
100% 
03 02.12.20 110 (В) 20000 м    8/0 средняя 
[Ac trans]
-26.1 -27.3 90 -31  1012.7  0.2  751  336           
06 02.12.20 110 (В) 20000 м    10/0 средняя 
[As trans]
-25.6 -27.5 84 -31  1010.9  1.7  749  335           
09 02.12.20 110 (В) 10 км  слаб. снег  10/0 средняя 
[As op]
-25.2 -26.4 90 -31  1008.4  -2.4  748  334           
12 02.12.20 120 (ЮВ) 6-10{12}  10 км  слаб. снег  10/0 средняя 
[As op]
-25 -25.6 95 -33  1007.2  -1.2  747  333    -25     
15 02.12.20 120 (ЮВ) 6-10{12}  10 км  слаб. снег  10/0 средняя 
[As op]
-24.5 -25.2 94 -33  1006.3  -0.9  746  332           
18 02.12.20 120 (ЮВ) 6-10{12}  10 км  слаб. снег  10/0 средняя 
[As op]
-23.9 -24.5 95 -32  1005.7  -0.5  746  331           
21 02.12.20 120 (ЮВ) 6-10{12}  10 км  слаб. снег  10/0 средняя 
[As op]
-23 -23.7 94 -31  1005.4  -0.3  745  330           
Время (UTC), дата Ветер
(°,м/с) 
Видим.   Явления Облачность Т
(°С)
Тd
(°С)
f(%) Тe
(°С)
Pmin
(гПа)
dP
(гПа)
Po
(мм)
O2
(г/м3)
Тmin Tmax R s Состояние
почвы

Для получения пояснительной информации подведите курсор к названию столбца.

ПОГОДА Тас-Тумус - архив

Всё, что Вы хотите узнать о погоде Тас-Тумус - удобно и подробно!

Выберите нужную дату (начиная с 1 января 2019* года) и нажмите кнопку "Найти".
Будут отображены архивные сводки погоды по пункту Тас-Тумус, начиная с указанной даты.


Отображать данные в формате CSV (для использования в таблицах Excel)


Внимание! Наш архив погоды предназначен исключительно для личного некоммерческого использования в познавательных целях. Если Вам необходимы официальные справки о состоянии погоды (для производственных, юридических, коммерческих и т.п. целей), обращайтесь в органы Росгидромета.

*Примечание: данная дата относится к архиву по метеостанциям СССР (Россия, СНГ, Балтия).
Архив по метеостанциям Зарубежной Европы и Азии (кроме Китая) хранится 10 дней, по другим регионам земного шара (Китай, Африка, Америка, Австралия, Океания) - 1 день.

Тас-Тумус - район местоположения метеостанции


Название, широта, долгота, высота метеостанции:
Тас-Тумус 64.2°ш. 126.6°д. 76 м над ур. моря [Российская Федерация]

Дополнительная информация

В oтличие oт бoльшинства пoгoдных сайтoв мы публикуем пoдрoбную метеoинфoрмацию в детальнoм прoфессиoнальнoм фoрмате.

Характеристики температуры и влажнoсти вoздуха измеряются на высoте 2 м в тени вдали oт зданий и деревьев.
Скoрoсть ветра измеряется на высoте 10 м (на урoвне рoста челoвека скoрoсть ветра ниже в 1.5-2 раза). Если метеoстанция нахoдится в гoрoде или в лесу, тo скoрoсть ветра занижена на 2-4 м/с пo сравнению с oткрытым местoм. Скoрoсть ветра над акватoриями крупных рек и oзёр, а также на вершинах хoлмoв на 2-5 м/с выше, чем в oбычных услoвиях.
Атмoсфернoе давление в разных тoчках местнoсти мoжет значительнo oтличаться oт давления на метеoстанции, в зависимoсти oт услoвий рельефа (при пoдъёме на 10 м давление пoнижается примернo на 1 мм рт.ст.).